Change the Weather History Date:

Sunday, November 18, 2012

  Actual Average Record
Temperature  
Mean Temperature 45 °F -  
Max Temperature 48 °F 46 °F 55 °F (2003)
Min Temperature 42 °F 34 °F 28 °F (2014)
Degree Days  
Heating Degree Days 20    
Moisture  
Dew Point 43 °F    
Average Humidity 86    
Maximum Humidity 100    
Minimum Humidity 77    
Precipitation  
Precipitation 0.20 in 0.19 in - ()
Sea Level Pressure  
Sea Level Pressure 29.58 in    
Wind  
Wind Speed 10 mph ()    
Max Wind Speed 36 mph    
Max Gust Speed 51 mph    
Visibility 18.4 miles    
Events Rain    
Averages and records for this station are not official NWS values.
T = Trace of Precipitation, MM = Missing Value Source: Averaged Metar Reports

Daily Weather History Graph

Daily Weather History Graph

Search for Another Location

Airport or City:

Trip Planner

Search our weather history database for the weather conditions in past years. The results will help you decide how hot, cold, wet, or windy it might be!

Date:

Astronomy

Nov. 18, 2012 Rise Set
Actual Time 7:27 AM PST 4:29 PM PST
Civil Twilight 6:52 AM PST 5:04 PM PST
Nautical Twilight 6:14 AM PST 5:43 PM PST
Astronomical Twilight 5:36 AM PST 6:20 PM PST
Moon 11:52 AM PST (11/18) 10:03 PM PST (11/18)
Length of Visible Light 10h 12m
Length of Day
9h 02m
Waxing Crescent, 31% of the Moon is Illuminated
Nov 18
Waxing Crescent
Nov 20
First Quarter
Nov 28
Full
Dec 6
Last Quarter
Dec 13
New

Hourly Weather History & Observations

Time (PST) Temp. Windchill Dew Point Humidity Pressure Visibility Wind Dir Wind Speed Gust Speed Precip Events Conditions
12:00 AM 42.8 °F 38.0 °F 41.0 °F 93% 29.64 in 20.0 mi South 8.1 mph - N/A Rain Light Rain
1:00 AM 42.8 °F 41.1 °F 41.0 °F 93% 29.64 in 20.0 mi ESE 3.5 mph - N/A Rain Light Rain
2:00 AM 42.8 °F - 41.0 °F 93% 29.66 in 20.0 mi Calm Calm - N/A Rain Light Rain
3:00 AM 42.8 °F - 42.8 °F 100% 29.66 in 20.0 mi SW 2.3 mph - N/A Rain Light Rain
4:00 AM 44 °F - 42 °F 89% 29.65 in 19 mi SSE 6.9 mph - - Rain Light Rain
4:00 AM 42.8 °F 38.6 °F 41.0 °F 93% 29.65 in 20.0 mi SSE 6.9 mph - N/A Rain Light Rain
5:00 AM 44.6 °F 42.2 °F 41.0 °F 87% 29.67 in 20.0 mi SSE 4.6 mph - N/A Rain Light Rain
6:00 AM 42.8 °F 40.1 °F 41.0 °F 93% 29.67 in 20.0 mi SSE 4.6 mph - N/A Rain Light Rain
7:00 AM 44.6 °F 41.4 °F 41.0 °F 87% 29.66 in 20.0 mi SSE 5.8 mph - N/A Rain Light Rain
8:00 AM 44.6 °F 41.4 °F 42.8 °F 93% 29.66 in 20.0 mi SSE 5.8 mph - N/A Rain Light Rain
9:00 AM 46.4 °F 41.9 °F 42.8 °F 87% 29.66 in 30.0 mi ESE 9.2 mph - N/A Rain Light Rain
10:00 AM 46 °F - 43 °F 87% 29.66 in 28 mi SSW 2.3 mph - - Rain Light Rain
10:00 AM 46.4 °F - 42.8 °F 87% 29.66 in 30.0 mi SSW 2.3 mph - N/A   Mostly Cloudy
11:00 AM 48.2 °F - 42.8 °F 82% 29.66 in 30.0 mi SE 15.0 mph - N/A   Mostly Cloudy
12:00 PM 48.2 °F - 42.8 °F 82% 29.65 in 30.0 mi SE 15.0 mph 21.9 mph N/A   Mostly Cloudy
1:00 PM 48.2 °F - 42.8 °F 82% 29.62 in 20.0 mi SE 19.6 mph 27.6 mph N/A   Mostly Cloudy
2:00 PM 48.2 °F - 42.8 °F 82% 29.59 in 30.0 mi SE 23.0 mph 31.1 mph N/A   Overcast
3:00 PM 48.2 °F - 42.8 °F 82% 29.55 in 30.0 mi SE 20.7 mph 33.4 mph N/A   Overcast
4:00 PM 48 °F - 43 °F 77% 29.52 in 28 mi SE 23.0 mph - -   Overcast
4:00 PM 48.2 °F - 42.8 °F 82% 29.52 in 30.0 mi SE 23.0 mph 35.7 mph N/A   Overcast
5:00 PM 48.2 °F - 42.8 °F 82% 29.46 in 30.0 mi SE 25.3 mph 35.7 mph N/A   Overcast
6:00 PM 48.2 °F - 42.8 °F 82% 29.41 in 30.0 mi SE 31.1 mph 43.7 mph N/A Rain Light Rain
7:00 PM 48.2 °F - 42.8 °F 82% 29.37 in 30.0 mi SE 35.7 mph 50.6 mph N/A Rain Light Rain
8:00 PM 48.2 °F - 42.8 °F 82% 29.39 in 30.0 mi SSE 28.8 mph 43.7 mph N/A Rain Light Rain
9:00 PM 48.2 °F - 42.8 °F 82% 29.46 in 30.0 mi SSE 17.3 mph 29.9 mph N/A Rain Light Rain
10:00 PM 48 °F - 44 °F 82% 29.47 in 15 mi SE 17.3 mph - - Rain Light Rain
10:00 PM 48.2 °F - 44.6 °F 87% 29.47 in 15.0 mi SSE 18.4 mph 27.6 mph N/A Rain Light Rain
11:00 PM 48.2 °F - 44.6 °F 87% 29.46 in 15.0 mi SSE 15.0 mph - N/A   Partly Cloudy
11:51 PM 48.2 °F - - N/A% - 12.0 mi SE 16.1 mph 21.9 mph N/A Rain Light Rain Showers